Devils Lake, ND

7:37 AM CDT on August 30, 2016 (GMT -0500)
Devils Lake Municipal

Weather History for KDVL - November, 2011

Change the Weather History Date:

Thursday, November 3, 2011

  Actual Average Record
Temperature  
Mean Temperature 44 °F -  
Max Temperature 55 °F 39 °F 65 °F (1980)
Min Temperature 33 °F 23 °F 0 °F (1991)
Degree Days  
Heating Degree Days 21    
Moisture  
Dew Point 21 °F    
Average Humidity 47    
Maximum Humidity 65    
Minimum Humidity 23    
Precipitation  
Precipitation 0.00 in - - ()
Sea Level Pressure  
Sea Level Pressure 30.08 in    
Wind  
Wind Speed 15 mph (SW)    
Max Wind Speed 20 mph    
Max Gust Speed 25 mph    
Visibility 10 miles    
Events      
Averages and records for this station are not official NWS values.
T = Trace of Precipitation, MM = Missing Value Source: NWS Daily Summary

Daily Weather History Graph

Daily Weather History Graph

Search for Another Location

Airport or City:

Trip Planner

Search our weather history database for the weather conditions in past years. The results will help you decide how hot, cold, wet, or windy it might be!

Date:

Astronomy

Nov. 03, 2011 Rise Set
Actual Time 8:23 AM CDT 6:14 PM CDT
Civil Twilight 7:50 AM CDT 6:46 PM CDT
Nautical Twilight 7:13 AM CDT 7:23 PM CDT
Astronomical Twilight 6:37 AM CDT 7:59 PM CDT
Moon 3:05 PM CDT (11/3) 1:07 AM CDT (11/3)
Length of Visible Light 10h 56m
Length of Day
9h 50m
First Quarter, 60% of the Moon is Illuminated
Nov 3
First Quarter
Nov 10
Full
Nov 18
Last Quarter
Nov 25
New
Dec 2
First Quarter

Hourly Weather History & Observations

Time (CDT) Temp. Windchill Dew Point Humidity Pressure Visibility Wind Dir Wind Speed Gust Speed Precip Events Conditions
12:15 AM 39.2 °F 30.8 °F 23.0 °F 52% 30.18 in 10.0 mi SW 15.0 mph - N/A   Clear
12:35 AM 37.4 °F 28.2 °F 23.0 °F 56% 30.18 in 10.0 mi SW 16.1 mph - N/A   Clear
12:55 AM 37.4 °F 28.5 °F 23.0 °F 56% 30.17 in 10.0 mi SW 15.0 mph - N/A   Clear
1:15 AM 37.4 °F 28.2 °F 23.0 °F 56% 30.17 in 10.0 mi SW 16.1 mph - N/A   Clear
1:35 AM 37.4 °F 29.3 °F 21.2 °F 52% 30.17 in 10.0 mi WSW 12.7 mph - N/A   Clear
1:55 AM 35.6 °F 26.6 °F 21.2 °F 56% 30.17 in 10.0 mi SW 13.8 mph - N/A   Clear
2:15 AM 35.6 °F 27.1 °F 23.0 °F 60% 30.16 in 10.0 mi SW 12.7 mph - N/A   Clear
2:35 AM 35.6 °F 29.2 °F 21.2 °F 56% 30.17 in 10.0 mi SW 8.1 mph - N/A   Clear
2:55 AM 35.6 °F 28.0 °F 21.2 °F 56% 30.16 in 10.0 mi SW 10.4 mph - N/A   Clear
3:15 AM 35.6 °F 28.0 °F 23.0 °F 60% 30.15 in 10.0 mi SW 10.4 mph - N/A   Clear
3:35 AM 35.6 °F 27.5 °F 23.0 °F 60% 30.15 in 10.0 mi SW 11.5 mph - N/A   Clear
3:55 AM 35.6 °F 27.5 °F 21.2 °F 56% 30.15 in 10.0 mi SW 11.5 mph - N/A   Clear
4:15 AM 35.6 °F 27.5 °F 21.2 °F 56% 30.14 in 10.0 mi SW 11.5 mph - N/A   Clear
4:55 AM 35.6 °F 26.2 °F 23.0 °F 60% 30.13 in 10.0 mi SW 15.0 mph - N/A   Clear
5:15 AM 35.6 °F 27.1 °F 21.2 °F 56% 30.12 in 10.0 mi SW 12.7 mph - N/A   Clear
5:35 AM 35.6 °F 26.6 °F 23.0 °F 60% 30.11 in 10.0 mi SW 13.8 mph - N/A   Clear
5:55 AM 35.6 °F 25.9 °F 23.0 °F 60% 30.11 in 10.0 mi SW 16.1 mph - N/A   Clear
6:15 AM 35.6 °F 27.1 °F 23.0 °F 60% 30.11 in 10.0 mi SW 12.7 mph - N/A   Clear
6:35 AM 35.6 °F 26.6 °F 24.8 °F 65% 30.11 in 10.0 mi SW 13.8 mph - N/A   Clear
6:55 AM 35.6 °F 26.6 °F 23.0 °F 60% 30.10 in 10.0 mi SW 13.8 mph - N/A   Clear
7:15 AM 35.6 °F 26.2 °F 23.0 °F 60% 30.10 in 10.0 mi SW 15.0 mph - N/A   Clear
7:35 AM 35.6 °F 26.6 °F 21.2 °F 56% 30.10 in 10.0 mi SW 13.8 mph 17.3 mph N/A   Clear
7:55 AM 33.8 °F 24.3 °F 21.2 °F 60% 30.10 in 10.0 mi SW 13.8 mph - N/A   Clear
8:15 AM 33.8 °F 23.9 °F 21.2 °F 60% 30.09 in 10.0 mi SW 15.0 mph - N/A   Clear
8:35 AM 33.8 °F 24.8 °F 21.2 °F 60% 30.10 in 10.0 mi SW 12.7 mph - N/A   Clear
8:55 AM 35.6 °F 25.5 °F 21.2 °F 56% 30.10 in 10.0 mi SW 17.3 mph - N/A   Clear
9:15 AM 35.6 °F 25.9 °F 21.2 °F 56% 30.09 in 10.0 mi SW 16.1 mph - N/A   Clear
9:35 AM 35.6 °F 25.2 °F 21.2 °F 56% 30.09 in 10.0 mi SW 18.4 mph 23.0 mph N/A   Clear
9:55 AM 37.4 °F 28.5 °F 21.2 °F 52% 30.09 in 10.0 mi SW 15.0 mph - N/A   Clear
10:15 AM 35.6 °F 26.2 °F 21.2 °F 56% 30.09 in 10.0 mi SW 15.0 mph - N/A   Clear
10:35 AM 37.4 °F 27.5 °F 24.8 °F 60% 30.09 in 10.0 mi SW 18.4 mph - N/A   Clear
10:55 AM 37.4 °F 28.2 °F 23.0 °F 56% 30.08 in 10.0 mi SW 16.1 mph 20.7 mph N/A   Clear
11:15 AM 39.2 °F 30.2 °F 24.8 °F 56% 30.08 in 10.0 mi SW 17.3 mph 21.9 mph N/A   Clear
11:35 AM 42.8 °F 34.8 °F 24.8 °F 49% 30.08 in 10.0 mi SW 17.3 mph - N/A   Clear
11:55 AM 42.8 °F 35.1 °F 24.8 °F 49% 30.08 in 10.0 mi SSW 16.1 mph - N/A   Clear
12:15 PM 44.6 °F 36.6 °F 23.0 °F 43% 30.07 in 10.0 mi SSW 19.6 mph - N/A   Clear
12:35 PM 46.4 °F 39.2 °F 24.8 °F 43% 30.06 in 10.0 mi SSW 18.4 mph 23.0 mph N/A   Clear
12:55 PM 46.4 °F 39.2 °F 23.0 °F 40% 30.06 in 10.0 mi SSW 18.4 mph - N/A   Clear
1:15 PM 48.2 °F - 21.2 °F 34% 30.05 in 10.0 mi SSW 15.0 mph 23.0 mph N/A   Clear
1:35 PM 48.2 °F - 19.4 °F 32% 30.04 in 10.0 mi SSW 16.1 mph 23.0 mph N/A   Clear
1:55 PM 50.0 °F - 19.4 °F 30% 30.03 in 10.0 mi SSW 17.3 mph - N/A   Clear
2:15 PM 51.8 °F - 19.4 °F 28% 30.02 in 10.0 mi SSW 12.7 mph - N/A   Clear
2:35 PM 53.6 °F - 19.4 °F 26% 30.02 in 10.0 mi SSW 16.1 mph 21.9 mph N/A   Clear
2:55 PM 53.6 °F - 19.4 °F 26% 30.01 in 10.0 mi SSW 17.3 mph 24.2 mph N/A   Clear
3:15 PM 53.6 °F - 19.4 °F 26% 30.00 in 10.0 mi SSW 13.8 mph 19.6 mph N/A   Clear
3:35 PM 55.4 °F - 17.6 °F 23% 29.99 in 10.0 mi SSW 16.1 mph - N/A   Clear
3:55 PM 55.4 °F - 17.6 °F 23% 29.99 in 10.0 mi SSW 12.7 mph - N/A   Clear
4:15 PM 55.4 °F - 17.6 °F 23% 29.99 in 10.0 mi South 16.1 mph 21.9 mph N/A   Clear
4:35 PM 55.4 °F - 17.6 °F 23% 29.98 in 10.0 mi South 17.3 mph 20.7 mph N/A   Clear
4:55 PM 55.4 °F - 17.6 °F 23% 29.98 in 10.0 mi South 18.4 mph 25.3 mph N/A   Clear
5:15 PM 53.6 °F - 19.4 °F 26% 29.98 in 10.0 mi SSW 17.3 mph 20.7 mph N/A   Clear
5:35 PM 51.8 °F - 19.4 °F 28% 29.97 in 10.0 mi South 13.8 mph - N/A   Clear
5:55 PM 50.0 °F - 19.4 °F 30% 29.98 in 10.0 mi South 11.5 mph - N/A   Clear
6:35 PM 48.2 °F - 19.4 °F 32% 29.97 in 10.0 mi South 15.0 mph 18.4 mph N/A   Clear
6:55 PM 48.2 °F - 17.6 °F 30% 29.97 in 10.0 mi South 16.1 mph 19.6 mph N/A   Clear
7:15 PM 48.2 °F - 17.6 °F 30% 29.96 in 10.0 mi SSE 15.0 mph - N/A   Clear
7:35 PM 48.2 °F - 17.6 °F 30% 29.96 in 10.0 mi South 16.1 mph 27.6 mph N/A   Clear
7:55 PM 46.4 °F 38.7 °F 19.4 °F 34% 29.95 in 10.0 mi South 20.7 mph 25.3 mph N/A   Clear
8:15 PM 46.4 °F 39.2 °F 19.4 °F 34% 29.95 in 10.0 mi South 18.4 mph 28.8 mph N/A   Clear
8:35 PM 46.4 °F 38.7 °F 19.4 °F 34% 29.95 in 10.0 mi South 20.7 mph 29.9 mph N/A   Clear
8:55 PM 44.6 °F 36.4 °F 19.4 °F 37% 29.95 in 10.0 mi South 20.7 mph 28.8 mph N/A   Clear
9:15 PM 44.6 °F 35.9 °F 19.4 °F 37% 29.94 in 10.0 mi South 23.0 mph 29.9 mph N/A   Clear
9:35 PM 44.6 °F 36.4 °F 19.4 °F 37% 29.94 in 10.0 mi South 20.7 mph 28.8 mph N/A   Clear
9:55 PM 44.6 °F 36.1 °F 19.4 °F 37% 29.93 in 10.0 mi South 21.9 mph 29.9 mph N/A   Clear
10:15 PM 44.6 °F 36.1 °F 19.4 °F 37% 29.93 in 10.0 mi South 21.9 mph 26.5 mph N/A   Clear
10:35 PM 42.8 °F 33.8 °F 19.4 °F 39% 29.92 in 10.0 mi South 21.9 mph 27.6 mph N/A   Clear
10:55 PM 42.8 °F 34.0 °F 19.4 °F 39% 29.92 in 10.0 mi South 20.7 mph 27.6 mph N/A   Clear
11:15 PM 42.8 °F 34.8 °F 19.4 °F 39% 29.92 in 10.0 mi South 17.3 mph 21.9 mph N/A   Clear
11:55 PM 42.8 °F 35.1 °F 21.2 °F 42% 29.91 in 10.0 mi South 16.1 mph 24.2 mph N/A   Clear